When you browse on this site, cookies collect data to enhance your experience and personalize the content and advertising you see.
Visit our Privacy Policy to learn more. By continuing to use the site, you agree to this use of cookies and data.
  • In Portugal
  • List of Countries
  • For 7 days
  • Water Temperature
  • Satellite Maps
  • Weather Map
  • Weather Widgets
  • user-avatar
    Login

    Hourly Weather Schigry

    Today, 18 January, Friday

    Time Temperature Precipitation Wind Pressure Humidity
    00:00 -4°C° 0.1 mm 8 mps 736 mmHg 88%
    01:00 -2°C° 0.1 mm 8 mps 736 mmHg 89%
    02:00 -3°C° 0 mm 7 mps 737 mmHg 90%
    03:00 -3°C° 0.1 mm 7 mps 737 mmHg 90%
    04:00 -3°C° 0.1 mm 7 mps 737 mmHg 90%
    05:00 -3°C° 0.1 mm 7 mps 738 mmHg 91%
    06:00 -3°C° 0 mm 6 mps 738 mmHg 91%
    07:00 -3°C° 0 mm 6 mps 738 mmHg 91%
    08:00 -3°C° 0 mm 6 mps 738 mmHg 92%
    09:00 -3°C° 0 mm 6 mps 738 mmHg 92%
    10:00 -3°C° 0 mm 6 mps 738 mmHg 93%
    11:00 -1°C° 0 mm 5 mps 738 mmHg 93%
    12:00 -2°C° 0 mm 6 mps 738 mmHg 93%
    13:00 -2°C° 0 mm 6 mps 738 mmHg 93%
    14:00 -1°C° 0 mm 5 mps 738 mmHg 93%
    15:00 -1°C° 0.1 mm 5 mps 738 mmHg 93%
    16:00 -2°C° 0.1 mm 6 mps 738 mmHg 93%
    17:00 -3°C° 0.1 mm 6 mps 738 mmHg 93%
    18:00 -3°C° 0.3 mm 6 mps 737 mmHg 92%
    19:00 -2°C° 0.3 mm 6 mps 737 mmHg 92%
    20:00 -2°C° 0.3 mm 7 mps 737 mmHg 91%
    21:00 -2°C° 0 mm 6 mps 737 mmHg 90%
    22:00 -2°C° 0 mm 6 mps 737 mmHg 90%
    23:00 -2°C° 0 mm 6 mps 738 mmHg 89%

    Tomorrow, 19 January, Saturday

    Time Temperature Precipitation Wind Pressure Humidity
    00:00 -3°C° 0.1 mm 6 mps 738 mmHg 88%
    01:00 -2°C° 0.1 mm 5 mps 739 mmHg 88%
    02:00 -4°C° 0.1 mm 5 mps 740 mmHg 87%
    03:00 -5°C° 0 mm 5 mps 740 mmHg 88%
    04:00 -7°C° 0 mm 4 mps 741 mmHg 89%
    05:00 -8°C° 0 mm 4 mps 742 mmHg 89%
    06:00 -10°C° 0 mm 4 mps 742 mmHg 91%
    07:00 -10°C° 0 mm 3 mps 743 mmHg 92%
    08:00 -13°C° 0 mm 3 mps 743 mmHg 94%
    09:00 -12°C° 0 mm 3 mps 743 mmHg 93%
    10:00 -11°C° 0 mm 4 mps 744 mmHg 93%
    11:00 -10°C° 0 mm 4 mps 744 mmHg 92%
    12:00 -10°C° 0 mm 4 mps 744 mmHg 92%
    13:00 -11°C° 0 mm 5 mps 744 mmHg 92%
    14:00 -10°C° 0 mm 5 mps 744 mmHg 92%
    15:00 -10°C° 0 mm 5 mps 745 mmHg 91%
    16:00 -9°C° 0 mm 4 mps 745 mmHg 91%
    17:00 -8°C° 0 mm 4 mps 746 mmHg 90%
    18:00 -8°C° 0 mm 4 mps 746 mmHg 90%
    19:00 -8°C° 0 mm 4 mps 746 mmHg 90%
    20:00 -8°C° 0 mm 4 mps 747 mmHg 90%
    21:00 -8°C° 0 mm 4 mps 747 mmHg 91%
    22:00 -9°C° 0 mm 4 mps 747 mmHg 92%
    23:00 -10°C° 0 mm 4 mps 747 mmHg 93%

    Day after tomorrow, 20 January, Sunday

    Time Temperature Precipitation Wind Pressure Humidity
    00:00 -11°C° 0 mm 4 mps 748 mmHg 94%
    01:00 -11°C° 0 mm 4 mps 748 mmHg 94%
    02:00 -12°C° 0 mm 4 mps 748 mmHg 95%
    03:00 -12°C° 0 mm 4 mps 748 mmHg 95%
    04:00 -12°C° 0 mm 4 mps 748 mmHg 95%
    05:00 -12°C° 0 mm 4 mps 748 mmHg 95%
    06:00 -12°C° 0 mm 4 mps 748 mmHg 95%
    07:00 -11°C° 0 mm 4 mps 748 mmHg 94%
    08:00 -11°C° 0 mm 5 mps 748 mmHg 94%
    09:00 -11°C° 0 mm 5 mps 748 mmHg 93%
    10:00 -11°C° 0 mm 6 mps 748 mmHg 93%
    11:00 -10°C° 0 mm 6 mps 748 mmHg 92%
    12:00 -11°C° 0 mm 7 mps 747 mmHg 91%
    13:00 -9°C° 0 mm 7 mps 747 mmHg 89%
    14:00 -9°C° 0 mm 7 mps 746 mmHg 88%
    15:00 -9°C° 0 mm 7 mps 746 mmHg 88%
    16:00 -9°C° 0 mm 7 mps 746 mmHg 88%
    17:00 -10°C° 0 mm 6 mps 746 mmHg 88%
    18:00 -10°C° 0 mm 6 mps 746 mmHg 89%
    19:00 -11°C° 0 mm 6 mps 745 mmHg 90%
    20:00 -12°C° 0 mm 6 mps 745 mmHg 91%
    21:00 -13°C° 0 mm 5 mps 745 mmHg 91%
    22:00 -14°C° 0 mm 5 mps 745 mmHg 90%
    23:00 -15°C° 0 mm 5 mps 745 mmHg 90%

    21 January, Monday

    Time Temperature Precipitation Wind Pressure Humidity
    00:00 -15°C° 0 mm 5 mps 745 mmHg 91%
    01:00 -15°C° 0 mm 5 mps 745 mmHg 92%
    02:00 -15°C° 0 mm 4 mps 745 mmHg 92%
    03:00 -14°C° 0.3 mm 4 mps 744 mmHg 93%
    04:00 -14°C° 0.3 mm 4 mps 744 mmHg 94%
    05:00 -13°C° 0.3 mm 3 mps 744 mmHg 95%
    06:00 -12°C° 0.2 mm 3 mps 744 mmHg 95%
    07:00 -12°C° 0.2 mm 3 mps 744 mmHg 96%
    08:00 -10°C° 0.2 mm 2 mps 745 mmHg 96%
    09:00 -10°C° 0 mm 3 mps 745 mmHg 94%
    10:00 -10°C° 0 mm 3 mps 745 mmHg 93%
    11:00 -9°C° 0 mm 3 mps 746 mmHg 91%
    12:00 -9°C° 0 mm 3 mps 746 mmHg 90%
    13:00 -10°C° 0 mm 3 mps 746 mmHg 89%
    14:00 -10°C° 0 mm 3 mps 746 mmHg 88%
    15:00 -12°C° 0 mm 3 mps 746 mmHg 90%
    16:00 -14°C° 0 mm 3 mps 746 mmHg 92%
    17:00 -15°C° 0 mm 3 mps 747 mmHg 94%
    18:00 -15°C° 0 mm 3 mps 747 mmHg 95%
    19:00 -16°C° 0 mm 3 mps 747 mmHg 96%
    20:00 -15°C° 0 mm 2 mps 747 mmHg 97%
    21:00 -15°C° 0 mm 2 mps 748 mmHg 97%
    22:00 -15°C° 0 mm 2 mps 748 mmHg 96%
    23:00 -14°C° 0 mm 2 mps 748 mmHg 96%

    22 January, Tuesday

    Time Temperature Precipitation Wind Pressure Humidity
    00:00 -15°C° 0 mm 2 mps 748 mmHg 96%
    01:00 -15°C° 0 mm 2 mps 749 mmHg 96%
    02:00 -15°C° 0 mm 2 mps 749 mmHg 96%
    03:00 -15°C° 0 mm 2 mps 749 mmHg 96%
    04:00 -15°C° 0 mm 2 mps 749 mmHg 96%
    05:00 -15°C° 0 mm 2 mps 749 mmHg 97%
    06:00 -15°C° 0 mm 2 mps 749 mmHg 97%
    07:00 -14°C° 0 mm 2 mps 749 mmHg 96%
    08:00 -13°C° 0 mm 2 mps 749 mmHg 96%
    09:00 -13°C° 0 mm 2 mps 749 mmHg 96%
    10:00 -13°C° 0 mm 3 mps 748 mmHg 95%
    11:00 -13°C° 0 mm 3 mps 748 mmHg 95%
    12:00 -12°C° 0.2 mm 4 mps 748 mmHg 94%
    13:00 -12°C° 0.2 mm 4 mps 747 mmHg 93%
    14:00 -13°C° 0.2 mm 5 mps 747 mmHg 92%
    15:00 -12°C° 0.2 mm 5 mps 747 mmHg 93%
    16:00 -12°C° 0.2 mm 5 mps 747 mmHg 93%
    17:00 -11°C° 0.2 mm 4 mps 747 mmHg 93%
    18:00 -11°C° 0.1 mm 4 mps 747 mmHg 92%
    19:00 -11°C° 0.1 mm 4 mps 747 mmHg 92%
    20:00 -11°C° 0.1 mm 4 mps 747 mmHg 92%
    21:00 -11°C° 0.1 mm 4 mps 747 mmHg 92%
    22:00 -12°C° 0.1 mm 4 mps 747 mmHg 93%
    23:00 -12°C° 0.1 mm 4 mps 747 mmHg 93%

    23 January, Wednesday

    Time Temperature Precipitation Wind Pressure Humidity
    00:00 -12°C° 0.1 mm 4 mps 747 mmHg 93%
    01:00 -14°C° 0.1 mm 4 mps 747 mmHg 94%
    02:00 -13°C° 0.1 mm 3 mps 747 mmHg 94%
    03:00 -14°C° 0 mm 3 mps 747 mmHg 94%
    04:00 -14°C° 0 mm 3 mps 747 mmHg 95%
    05:00 -15°C° 0 mm 3 mps 747 mmHg 95%
    06:00 -15°C° 0 mm 2 mps 747 mmHg 95%
    07:00 -16°C° 0 mm 2 mps 748 mmHg 94%
    08:00 -17°C° 0 mm 2 mps 748 mmHg 94%
    09:00 -16°C° 0 mm 2 mps 748 mmHg 93%
    10:00 -15°C° 0 mm 2 mps 748 mmHg 91%
    11:00 -14°C° 0 mm 2 mps 749 mmHg 90%
    12:00 -14°C° 0 mm 2 mps 749 mmHg 89%
    13:00 -14°C° 0 mm 2 mps 749 mmHg 89%
    14:00 -14°C° 0 mm 2 mps 748 mmHg 88%
    15:00 -15°C° 0 mm 2 mps 749 mmHg 87%
    16:00 -16°C° 0 mm 2 mps 749 mmHg 86%
    17:00 -17°C° 0 mm 2 mps 749 mmHg 84%
    18:00 -18°C° 0 mm 2 mps 749 mmHg 83%
    19:00 -18°C° 0 mm 2 mps 749 mmHg 82%
    20:00 -19°C° 0 mm 2 mps 749 mmHg 81%
    21:00 -19°C° 0 mm 2 mps 750 mmHg 81%
    22:00 -19°C° 0 mm 2 mps 750 mmHg 80%
    23:00 -21°C° 0 mm 3 mps 750 mmHg 80%
    Show more